Location: Gumbrechtshoffen
(48.9046°N, 7.6300°E)
Time: 13:32:42
(UTC+00:00)

Daily predictions for brighter satellites

Satellite Brightness Start Highest point End
(mag) Time Altitude Azimuth Time Altitude Azimuth Time Altitude Azimuth
ATLAS 3B R/B 2.9 19:39:57 10° NW 19:47:02 78° NE 19:54:25 10° SE
CZ-4C R/B 4.5 19:47:31 10° W 19:52:15 28° NNW 19:57:52 10° NE
RESURS DK-1 2.4 19:49:00 10° SSW 19:53:04 56° ESE 19:57:10 10° NE
Cosmos 1633 2.8 19:49:48 10° S 19:53:16 48° E 19:56:47 10° NNE
OBJECT-B 3.3 19:51:51 10° SSW 19:54:26 22° W 19:57:03 10° NW
Cosmos 2369 4.1 19:51:49 10° NNW 19:57:25 63° WSW 20:02:59 10° SSE
Cosmos 2151 3.8 19:54:17 10° SSE 19:58:03 33° E 20:01:53 10° NNE
USA 276 2.2 19:55:58 10° WNW 19:59:09 79° NNE 20:02:18 10° E
Cosmos 1980 Rocket 2.3 19:53:54 10° NNW 19:59:33 80° WSW 20:05:12 10° SSE
Cosmos 1825 3.7 19:56:08 10° SSW 19:59:41 40° WNW 20:03:16 10° N
BREEZE-M DEB (TANK) 3.7 19:59:16 10° SSW 20:02:45 43° SE 20:13:30 10° ENE
Cosmos 1933 4.1 19:59:35 10° N 20:03:23 36° ENE 20:07:07 10° SE
ERS-1 Rocket 4.0 20:00:57 10° SE 20:05:18 31° ENE 20:09:41 10° N
COSMOS 2406 3.8 20:00:22 10° SW 20:06:00 64° WNW 20:11:42 10° NNE
SPOT 5 3.9 20:02:36 10° ESE 20:06:13 27° ENE 20:09:54 10° N
MetOp-B 4.2 20:02:03 10° SSE 20:07:22 73° ENE 20:12:44 10° NNW
ARIANE 5 R/B 3.6 20:03:45 10° SE 20:07:47 34° ENE 20:11:48 10° N
Terra 3.3 20:04:57 10° ESE 20:08:42 23° ENE 20:12:27 10° N
Cosmos 2322 Rocket 3.2 20:04:20 10° NNW 20:09:29 35° NE 20:14:35 10° ESE
Cosmos 158 Rocket 4.5 20:05:50 10° S 20:10:35 40° ESE 20:15:30 10° NE
SPOT 3 Rocket 3.6 20:05:29 10° SSE 20:10:43 87° ENE 20:15:59 10° NNW
Gbstr 26 Del rocket 2.7 20:10:09 10° WNW 20:13:53 79° NNE 20:17:52 10° ESE
Spot 2 Rocket 3.9 20:11:55 10° SE 20:16:52 52° ENE 20:21:50 10° N
Meteor 2-3 Rocket 4.1 20:14:24 10° SSE 20:19:46 47° E 20:25:13 10° NNE
Cosmos 332 Rocket 3.9 20:19:24 10° NNW 20:24:18 72° ENE 20:28:37 13° SSE
ISS -3.5 20:22:51 10° WNW 20:26:11 58° SSW 20:28:39 17° SE
ERS-2 3.1 20:23:11 10° N 20:26:45 50° WNW 20:30:15 10° SW
Cosmos 1076 Rocket 3.7 20:22:57 10° SSW 20:27:17 76° W 20:31:41 10° N
Cosmos 1151 Rocket 3.9 20:23:57 10° N 20:27:57 34° ENE 20:31:00 15° SE
USA 234 4.2 20:23:21 10° E 20:29:34 48° N 20:35:47 10° WNW
Cosmos 1092 Rocket 4.1 20:25:39 10° S 20:31:47 63° E 20:38:02 10° NNE
Cosmos 2219 Rocket 4.2 20:28:09 10° N 20:31:53 18° NE 20:35:37 10° E
Cosmos 1782 3.3 20:29:29 10° N 20:33:22 45° ENE 20:36:12 17° SE
SL-16 R/B 2.4 20:31:51 10° NNW 20:37:31 64° ENE 20:42:00 16° SE
Cosmos 1538 Rocket 4.0 20:32:35 10° SSW 20:37:48 88° ESE 20:43:01 10° NNE
Meteor 2-19 Rocket 4.4 20:34:00 10° S 20:40:03 81° E 20:46:08 10° NNE
Cosmos 2098 Rocket 3.6 20:40:25 10° SSW 20:43:24 43° WNW 20:46:53 10° N
Cosmos 2026 Rocket 4.1 20:39:52 10° S 20:46:07 65° E 20:52:20 10° NNE
Cosmos 1271 Rocket 2.7 20:43:03 10° N 20:47:04 86° E 20:50:02 17° SSE
CZ-2C R/B 3.7 20:46:14 10° NNE 20:50:49 83° WNW 20:55:17 10° SSW
GP-B 3.1 20:46:22 10° N 20:50:50 76° E 20:54:30 15° S
Cosmos 1627 Rocket 4.5 20:53:16 10° S 20:59:37 83° E 21:05:56 10° N
ATLAS 5 CENTAUR R/B 4.0 20:57:12 10° NNW 21:01:19 24° NNE 21:06:02 10° ENE
Cosmos 304 Rocket 4.2 20:56:48 10° NNW 21:01:33 59° WSW 21:05:02 17° S
Okean 3 Rocket 3.7 21:04:43 20° S 21:07:40 60° E 21:12:08 10° NNE
Cosmos 2082 Rocket 3.7 21:06:17 10° WSW 21:11:34 40° NW 21:16:54 10° NNE
Cosmos 220 Rocket 4.0 21:09:31 10° NNW 21:13:52 74° ENE 21:16:06 28° SSE
Resurs 01 Rocket 4.1 21:15:10 10° SW 21:18:08 17° W 21:21:08 10° NW
BREEZE-M DEB (TANK) 3.6 21:15:37 10° W 21:18:59 39° SSW 21:23:01 22° SSE
Cosmos 2360 Rocket 2.3 21:16:42 10° NNW 21:22:20 66° ENE 21:25:36 25° SE
Cosmos 923 Rocket 4.1 21:18:55 10° SSW 21:24:16 84° WNW 21:29:40 10° NNE
Meteor 1-10 Rocket 4.3 21:19:34 10° N 21:25:06 61° ENE 21:28:05 27° SSE
Cosmos 1174 4.4 21:22:49 10° NNW 21:25:36 31° NE 21:26:33 25° E
Cosmos 1408 Rocket 3.8 21:24:14 31° SSE 21:25:57 49° E 21:30:10 10° NNE
Cosmos 1553 Rocket 3.9 21:20:25 10° N 21:26:31 89° ENE 21:30:29 23° S
Cosmos 2333 Rocket 3.0 21:23:58 10° NNW 21:29:19 41° NE 21:32:47 20° ESE
ATLAS 2AS CENTAUR R/B 4.3 21:23:33 10° WSW 21:30:59 43° NNW 21:38:11 10° NE
Meteor 2-14 Rocket 4.4 21:27:36 19° S 21:32:07 79° E 21:38:16 10° NNE
Cosmos 2266 Rocket 4.3 21:29:46 26° SSE 21:32:53 47° E 21:38:48 10° NNE
Cosmos 2056 Rocket 3.5 21:29:29 10° NNW 21:34:55 90° S 21:37:36 30° SSE
USA 276 2.9 21:32:16 10° W 21:35:05 35° SW 21:35:05 35° SW
Cosmos 1812 2.8 21:31:52 10° NNW 21:35:44 73° W 21:37:16 34° S
USA 267 3.5 21:30:51 10° ENE 21:37:08 46° SE 21:43:21 10° SSW
ATLAS 3B R/B 4.1 21:31:17 10° WNW 21:37:14 29° WSW 21:42:22 14° SSW
Cosmos 2322 4.4 21:35:12 10° NNW 21:40:43 47° NE 21:43:59 23° ESE
Cosmos 2228 Rocket 4.0 21:38:24 10° N 21:42:28 36° ENE 21:43:53 28° ESE
ERS-1 Rocket 3.9 21:40:38 18° SSW 21:43:58 41° W 21:48:45 10° NNW
Cosmos 2084 3.3 21:42:47 36° S 21:44:09 55° SE 21:48:15 10° NE
SPOT 5 3.8 21:41:38 19° SSW 21:44:12 36° W 21:48:16 10° NNW
ARIANE 5 R/B 4.1 21:41:11 15° SSW 21:44:15 30° W 21:48:12 10° NNW
SL-27 R/B 2.5 21:44:33 51° SE 21:45:03 57° ESE 21:48:37 10° NNE
Terra 2.4 21:43:31 24° SSW 21:46:08 52° W 21:50:48 10° NNW
NOSS 2-1 (C) 2.8 21:46:54 57° ESE 21:46:54 57° ESE 21:50:10 10° NE
Cosmos 1655 Rocket 4.1 21:43:54 27° S 21:47:31 68° E 21:53:52 10° NNE
Cosmos 1515 Rocket 3.5 21:43:35 10° N 21:48:03 87° W 21:49:44 38° S
Cosmos 2237 Rocket 4.2 21:47:56 10° N 21:52:13 21° NE 21:56:29 10° E
Cosmos 2322 Rocket 2.8 21:48:19 10° NW 21:53:43 48° WSW 21:56:28 27° SSW
NOSS 2-1 (D) 2.6 21:54:20 67° SSE 21:54:31 70° SE 21:57:54 10° NE
S3M 4.1 21:49:47 10° N 21:56:12 82° W 21:59:44 29° S
Cosmos 1371 Rocket 4.4 21:50:58 10° NNW 21:56:13 56° WSW 21:58:42 30° S
H-2A R/B 3.5 21:54:36 10° NNE 21:58:49 80° WNW 22:00:37 34° SSW
Cosmos 2112 Rocket 4.3 21:54:09 12° SSW 21:59:00 67° WNW 22:04:16 10° NNE
Cosmos 1680 Rocket 4.1 21:54:39 10° SW 21:59:51 58° WNW 22:05:04 10° NNE
Gbstr 26 Del rocket 3.8 21:57:03 10° W 22:00:26 29° SW 22:00:26 29° SW
IRIDIUM 103 4.5 21:56:25 10° N 22:01:37 61° E 22:03:31 37° SSE
ISS -1.1 22:01:01 10° WSW 22:01:36 11° WSW 22:01:36 11° WSW
Cosmos 1862 3.9 22:02:44 28° SW 22:04:34 53° WNW 22:08:29 10° N
COSMOS 2455 3.3 22:05:55 35° SSE 22:07:30 41° ESE 22:13:06 10° NE
USA 234 3.3 22:07:28 20° ESE 22:12:13 82° NNE 22:18:48 10° NW
ALOS 2 3.5 22:13:01 32° ESE 22:14:15 39° ENE 22:18:21 10° N
Cosmos 2219 Rocket 2.3 22:11:18 10° NNW 22:16:55 71° ENE 22:19:12 36° SE
COBE Rocket 3.7 22:16:53 47° SSE 22:18:15 86° ENE 22:22:57 10° NNW
IRIDIUM 106 4.2 22:14:39 10° N 22:19:55 86° E 22:21:45 42° S
SL-16 R/B 3.8 22:16:44 10° NW 22:21:09 24° WSW 22:23:52 17° SW
Cosmos 2333 4.1 22:17:39 10° NNW 22:23:16 78° WSW 22:25:16 41° SSE
COSMOS 2428 2.8 22:21:39 10° NNW 22:27:22 70° ENE 22:29:40 37° SE
Cosmos 1602 4.4 22:30:36 41° E 22:30:36 41° E 22:34:12 10° NNE
Cosmos 1805 Rocket 3.5 22:32:29 57° SSE 22:33:20 77° E 22:37:47 10° NNE
Cosmos 292 Rocket 4.4 22:29:10 10° NW 22:33:42 45° WSW 22:34:52 37° SW
Cosmos 494 Rocket 4.4 22:33:21 39° SE 22:34:01 41° ESE 22:38:50 10° NE
Cosmos 1048 Rocket 4.1 22:36:19 47° SSE 22:37:21 56° ESE 22:42:22 10° NNE
Cosmos 1515 3.7 22:33:49 10° N 22:37:34 63° ENE 22:37:44 62° E
CZ-3B R/B 2.0 22:35:06 10° WNW 22:43:43 81° SW 22:44:25 58° SE
Cosmos 1500 Rocket 4.3 22:43:12 33° SW 22:44:43 48° WNW 22:49:02 10° N
ATLAS 5 CENTAUR R/B 2.4 22:41:22 10° NW 22:46:47 70° NE 22:50:00 30° ESE
Meteor 1-27 Rocket 4.3 22:42:52 10° NNW 22:48:17 49° W 22:50:25 33° SSW
NOSS 2-1 (E) 4.3 22:51:16 23° W 22:52:48 37° NW 22:56:11 10° NNE
NOSS 3-1 (C) 4.2 22:47:43 10° NW 22:55:05 61° WSW 22:58:46 35° S
Cosmos 972 Rocket 4.1 22:55:32 37° SW 22:57:40 71° WNW 23:02:42 10° NNE
NOSS 0 Rocket 4.0 22:51:31 10° NNW 22:57:47 73° ENE 23:00:28 36° SE
Cosmos 1666 4.1 23:02:00 27° E 23:02:00 27° E 23:05:06 10° NNE
Cosmos 2285 Rocket 4.2 22:56:31 10° NNW 23:02:43 60° WSW 23:04:48 40° SSW
Thor Agena Rocket 4.3 23:00:38 10° NNE 23:05:17 35° E 23:06:01 34° ESE
Cosmos 2360 Rocket 3.7 23:01:32 10° NW 23:05:50 23° WSW 23:07:21 20° SW
Meteor 1-20 Rocket 4.2 23:05:25 42° SSW 23:07:22 76° WNW 23:13:05 10° N
Cosmos 1452 Rocket 4.1 23:02:25 10° NW 23:07:24 44° WSW 23:08:29 39° SW
USA 229 DEB 3.9 23:01:30 10° NW 23:08:47 73° SW 23:12:08 37° SSE
USA 229 3.9 23:01:36 10° NW 23:08:53 74° SW 23:12:15 37° SSE
Cosmos 1470 Rocket 4.1 23:11:57 42° ESE 23:12:12 42° E 23:16:18 10° NNE
COSMOS 2487 3.3 23:13:20 41° WNW 23:13:26 41° WNW 23:16:41 10° N
Cosmos 2333 Rocket 2.9 23:08:21 10° NW 23:13:34 39° WSW 23:14:46 35° SW
Cosmos 1980 3.9 23:08:04 10° NNW 23:13:44 65° ENE 23:16:00 36° SE
Sich 1 3.6 23:14:38 43° WSW 23:15:31 51° WNW 23:19:47 10° N
Cosmos 2084 Rocket 3.9 23:11:44 10° NW 23:15:51 57° NE 23:17:04 41° E
Geosat 4.5 23:14:34 32° ESE 23:16:40 56° NE 23:21:36 10° NNW
Cosmos 1633 Rocket 2.9 23:17:04 71° SSE 23:17:30 83° E 23:21:53 10° N
APEX 4.4 23:16:51 47° SSE 23:18:12 59° ESE 23:24:38 10° NE
Cosmos 1340 Rocket 4.1 23:19:57 28° E 23:19:57 28° E 23:23:11 10° NNE
USA 267 3.4 23:13:51 10° NE 23:20:23 73° NNW 23:26:54 10° WSW
Cosmos 1666 Rocket 3.5 23:20:10 64° SW 23:20:46 77° WNW 23:25:13 10° N
SL-08 R/B 4.4 23:21:43 44° S 23:23:51 87° E 23:30:04 10° N
PSLV R/B 4.3 23:20:26 10° NNE 23:25:02 45° E 23:25:38 43° ESE
NOSS 3-1 (A) 4.2 23:21:49 10° NW 23:29:12 61° WSW 23:32:41 37° S
Meteor 1-18 Rocket 4.4 23:24:53 10° NNW 23:30:43 68° W 23:32:22 46° SSW
Cosmos 2297 Rocket 2.7 23:32:09 40° SE 23:33:09 44° ESE 23:38:30 10° NE
CZ-4C R/B 4.1 23:27:04 10° NW 23:33:20 39° NNE 23:40:41 10° E
Cosmos 1110 Rocket 4.4 23:29:34 10° NNW 23:34:43 50° WSW 23:35:37 45° SW
Cosmos 2237 Rocket 2.1 23:31:24 10° NNW 23:37:07 87° ENE 23:38:57 45° SSE
Okean 1 4.1 23:33:34 10° NNW 23:37:19 38° W 23:37:21 38° W
Cosmos 1331 Rocket 4.3 23:36:04 10° NNW 23:41:06 48° WSW 23:41:53 44° SW
NOSS 2-2 (D) 4.4 23:36:24 10° NW 23:41:31 77° NE 23:45:55 23° SE
Cosmos 1862 Rocket 3.7 23:38:27 10° NNW 23:42:44 55° W 23:43:02 53° WSW
Cosmos 1500 3.7 23:44:24 49° W 23:44:32 49° WNW 23:48:18 10° N
Cosmos 2227 Rocket 2.8 23:43:37 37° SE 23:44:41 41° ESE 23:49:58 10° NE
Cosmos 1745 Rocket 3.9 23:43:09 45° S 23:45:17 88° E 23:51:37 10° N
Meteor 1-11 Rocket 4.4 23:46:25 34° SE 23:47:59 42° E 23:53:08 10° NNE
ALOS 2 4.0 23:50:25 25° W 23:50:42 25° W 23:54:22 10° NW
COSMOS 2455 3.7 23:49:00 17° WSW 23:53:25 46° NW 23:59:13 10° NNE
MINOTAUR IV R/B 4.5 23:49:36 10° NNW 23:54:08 69° WSW 23:54:29 66° SW
